Skip Page Navigation
NASA JPL Caltech
NASA Logo - Jet Propulsion Laboratory + View the NASA Portal
+ Center for Near-Earth Object Studies
JPL Home Earth Solar System Stars & Galaxies Technology
JPL Solar System Dynamics
BODIES ORBITS EPHEMERIDES TOOLS PHYSICAL DATA DISCOVERY FAQ SITE MAP
IMPORTANT: The SSD Announcement email list is now available. Major changes are coming in the near future, including possible hostname and/or URL changes. To be notified of such changes, subscribe to this email list.

Please visit this page for more details.


JPL Small-Body Database Browser
Search: [ help ]  
277914 (2006 KX87)
Classification: Main-belt Asteroid          SPK-ID: 2277914
Ephemeris | Orbit Diagram | Orbital Elements | Mission Design | Physical Parameters | Discovery Circumstances | Close-Approach Data ]

[ show orbit diagram ]
Orbital Elements at Epoch 2458600.5 (2019-Apr-27.0) TDB
Reference: JPL 14 (heliocentric ecliptic J2000)
 Element Value Uncertainty (1-sigma)   Units 
e .0637649167854679 6.9471e-08  
a 3.069315572382228 3.8497e-08 au
q 2.873600920320935 2.2206e-07 au
i 8.828205745063494 7.7895e-06 deg
node 240.0711158490843 4.5268e-05 deg
peri 128.1104884994238 7.3182e-05 deg
M 16.38260430754574 5.5729e-05 deg
tp 2458511.119828816154
(2019-Jan-27.61982882)
0.00030418 TDB
period 1964.087090314706
5.38
3.6952e-05
1.012e-07
d
yr
n .1832912612557914 3.4484e-09 deg/d
Q 3.265030224443522 4.0952e-08 au
  Orbit Determination Parameters
   # obs. used (total)      157  
   data-arc span      9863 days (27.00 yr)  
   first obs. used      1992-11-24  
   last obs. used      2019-11-26  
   planetary ephem.      DE431  
   SB-pert. ephem.      SB431-N16  
   condition code      0  
   norm. resid. RMS      .55706  
   source      ORB  
   producer      Otto Matic  
   solution date      2019-Dec-04 20:12:00  

Additional Information
 Earth MOID = 1.88353 au 
 Jupiter MOID = 2.08726 au 
 T_jup = 3.210 
[ show covariance matrix ]

Ephemeris | Orbit Diagram | Orbital Elements | Mission Design | Physical Parameters | Discovery Circumstances | Close-Approach Data ]

Physical Parameter Table
Parameter Symbol Value Units Sigma Reference Notes
absolute magnitude H 15.9   n/a MPO418478  

277914 (2006 KX87)          Discovered 2006-May-24 by Spacewatch at Kitt Peak
Reference: 20110517/Numbers.arcLast Updated: 2011-05-20

[ show close-approach data ]
Ephemeris | Orbit Diagram | Orbital Elements | Mission Design | Physical Parameters | Discovery Circumstances | Close-Approach Data ]
ABOUT SSD CREDITS/AWARDS PRIVACY/COPYRIGHT GLOSSARY LINKS
FirstGov 2019-Dec-10 16:12 UT
(server date/time)  
NASA Home Page
Site Manager:   Ryan S. Park
Webmaster  Alan B. Chamberlin